Radiation Dose at Monitoring Post of Fukushima Daini Nuclear Power Station
Date,Time,MP-1(microSv/h),MP-2(microSv/h),MP-3(microSv/h),MP-4(microSv/h),MP-5(microSv/h),MP-6(microSv/h),MP-7(microSv/h),Wind Direction,Wind Velocity(m/s),Rain
2023/09/27,00:00,0.147,0.133,0.218,0.203,0.209,0.119,0.077,south-southwest,1.5,No
2023/09/27,00:10,0.148,0.132,0.217,0.206,0.211,0.119,0.076,south-southwest,1.7,No
2023/09/27,00:20,0.148,0.134,0.218,0.205,0.211,0.120,0.076,southwest,1.1,No
2023/09/27,00:30,0.148,0.133,0.217,0.205,0.209,0.120,0.076,southwest,1.0,Yes
2023/09/27,00:40,0.150,0.134,0.219,0.205,0.212,0.119,0.076,south,1.4,Yes
2023/09/27,00:50,0.147,0.134,0.218,0.204,0.211,0.120,0.077,south-southeast,1.1,Yes
2023/09/27,01:00,0.149,0.134,0.217,0.206,0.209,0.120,0.077,south-southeast,1.0,Yes
2023/09/27,01:10,0.150,0.135,0.220,0.206,0.213,0.121,0.077,-,CALM,Yes
2023/09/27,01:20,0.148,0.134,0.217,0.205,0.210,0.121,0.079,south-southeast,0.6,Yes
2023/09/27,01:30,0.151,0.134,0.219,0.207,0.210,0.120,0.078,southeast,0.9,No
2023/09/27,01:40,0.149,0.134,0.218,0.205,0.213,0.121,0.077,-,CALM,No
2023/09/27,01:50,0.148,0.133,0.218,0.207,0.211,0.121,0.078,-,CALM,Yes
2023/09/27,02:00,0.150,0.134,0.220,0.206,0.211,0.120,0.077,-,CALM,Yes
2023/09/27,02:10,0.149,0.134,0.218,0.205,0.212,0.120,0.077,-,CALM,Yes
2023/09/27,02:20,0.148,0.134,0.220,0.207,0.210,0.121,0.078,-,CALM,Yes
2023/09/27,02:30,0.149,0.134,0.219,0.206,0.212,0.122,0.077,-,CALM,No
2023/09/27,02:40,0.148,0.132,0.217,0.206,0.211,0.121,0.079,northwest,0.8,No
2023/09/27,02:50,0.149,0.134,0.219,0.206,0.210,0.120,0.077,northwest,1.6,Yes
2023/09/27,03:00,0.148,0.133,0.217,0.205,0.212,0.120,0.078,north-northwest,0.6,No
2023/09/27,03:10,0.149,0.133,0.218,0.207,0.209,0.121,0.078,-,CALM,Yes
2023/09/27,03:20,0.150,0.134,0.218,0.205,0.212,0.120,0.077,-,CALM,No
2023/09/27,03:30,0.147,0.133,0.217,0.204,0.211,0.120,0.078,-,CALM,No
2023/09/27,03:40,0.149,0.133,0.219,0.208,0.209,0.120,0.078,-,CALM,No
2023/09/27,03:50,0.150,0.133,0.217,0.204,0.211,0.120,0.077,north,0.8,No
2023/09/27,04:00,0.147,0.134,0.219,0.206,0.210,0.120,0.077,north-northwest,0.7,No
2023/09/27,04:10,0.150,0.134,0.218,0.206,0.210,0.119,0.077,north-northwest,1.5,No
2023/09/27,04:20,0.147,0.133,0.218,0.206,0.211,0.120,0.077,north-northwest,1.7,No
2023/09/27,04:30,0.148,0.134,0.218,0.205,0.209,0.120,0.077,north-northwest,0.6,No
2023/09/27,04:40,0.149,0.133,0.218,0.204,0.212,0.120,0.077,-,CALM,No
2023/09/27,04:50,0.148,0.133,0.217,0.206,0.211,0.121,0.077,north,1.4,Yes
2023/09/27,05:00,0.149,0.133,0.216,0.204,0.210,0.120,0.077,north-northwest,1.8,Yes
2023/09/27,05:10,0.148,0.132,0.220,0.205,0.212,0.119,0.078,northwest,1.3,No
2023/09/27,05:20,0.148,0.133,0.217,0.206,0.209,0.121,0.077,north-northwest,1.3,No
2023/09/27,05:30,0.149,0.133,0.218,0.204,0.210,0.120,0.077,north-northwest,1.6,No
2023/09/27,05:40,0.147,0.133,0.218,0.206,0.211,0.120,0.077,north-northwest,1.8,Yes
2023/09/27,05:50,0.149,0.133,0.217,0.205,0.208,0.120,0.077,north-northwest,2.4,No
2023/09/27,06:00,0.148,0.133,0.219,0.205,0.212,0.119,0.077,north-northwest,3.5,Yes
2023/09/27,06:10,0.148,0.133,0.217,0.206,0.211,0.121,0.077,north-northwest,3.8,No
2023/09/27,06:20,0.150,0.133,0.218,0.204,0.210,0.120,0.078,north-northwest,4.0,Yes
2023/09/27,06:30,0.148,0.134,0.218,0.207,0.212,0.120,0.079,north-northwest,4.8,Yes
2023/09/27,06:40,0.151,0.134,0.220,0.207,0.212,0.122,0.078,north-northwest,5.1,Yes
2023/09/27,06:50,0.152,0.136,0.221,0.208,0.213,0.123,0.081,north-northwest,4.5,Yes
2023/09/27,07:00,0.150,0.136,0.221,0.209,0.213,0.123,0.080,north-northwest,5.1,Yes
2023/09/27,07:10,0.152,0.136,0.223,0.206,0.210,0.122,0.080,north-northwest,4.7,Yes
2023/09/27,07:20,0.150,0.136,0.220,0.209,0.213,0.122,0.080,north-northwest,4.3,Yes
2023/09/27,07:30,0.152,0.137,0.222,0.207,0.212,0.124,0.081,north-northwest,5.4,Yes
2023/09/27,07:40,0.154,0.137,0.223,0.210,0.216,0.125,0.081,north-northwest,4.8,Yes
2023/09/27,07:50,0.153,0.138,0.223,0.210,0.215,0.125,0.082,north-northwest,4.8,Yes
2023/09/27,08:00,0.156,0.141,0.224,0.211,0.215,0.128,0.084,northwest,5.1,Yes
2023/09/27,08:10,0.154,0.139,0.223,0.211,0.215,0.127,0.084,north-northwest,5.1,Yes
2023/09/27,08:20,0.155,0.140,0.224,0.210,0.213,0.126,0.083,northwest,5.1,Yes
2023/09/27,08:30,0.154,0.138,0.222,0.210,0.214,0.125,0.083,north-northwest,5.4,Yes
2023/09/27,08:40,0.153,0.136,0.221,0.208,0.215,0.124,0.082,northwest,5.4,Yes
2023/09/27,08:50,0.153,0.138,0.220,0.209,0.212,0.125,0.081,northwest,5.0,Yes
2023/09/27,09:00,0.152,0.137,0.220,0.209,0.214,0.125,0.082,northwest,3.8,Yes
2023/09/27,09:10,0.153,0.138,0.220,0.208,0.213,0.125,0.082,northwest,3.5,Yes
2023/09/27,09:20,0.152,0.137,0.220,0.209,0.211,0.126,0.082,north-northwest,4.2,Yes
2023/09/27,09:30,0.152,0.137,0.219,0.208,0.214,0.125,0.083,north-northwest,3.3,Yes
2023/09/27,09:40,0.152,0.137,0.221,0.207,0.212,0.124,0.082,north-northwest,3.9,Yes
2023/09/27,09:50,0.152,0.136,0.218,0.209,0.212,0.124,0.082,north-northwest,3.3,Yes
2023/09/27,10:00,0.150,0.136,0.218,0.206,0.214,0.123,0.081,north-northwest,2.9,Yes
2023/09/27,10:10,0.151,0.135,0.218,0.206,0.211,0.122,0.080,north,3.0,Yes
2023/09/27,10:20,0.151,0.135,0.218,0.208,0.211,0.124,0.082,west,1.7,Yes
2023/09/27,10:30,0.153,0.138,0.220,0.207,0.215,0.126,0.083,north-northwest,1.5,Yes
2023/09/27,10:40,0.154,0.138,0.221,0.209,0.213,0.127,0.085,north,2.2,Yes
2023/09/27,10:50,0.153,0.138,0.218,0.210,0.214,0.128,0.085,north,3.0,Yes
2023/09/27,11:00,0.154,0.140,0.222,0.208,0.215,0.128,0.085,north,3.2,Yes
2023/09/27,11:10,0.155,0.139,0.222,0.209,0.214,0.127,0.086,north-northwest,2.7,Yes
2023/09/27,11:20,0.153,0.140,0.221,0.211,0.216,0.128,0.086,north,2.4,Yes
2023/09/27,11:30,0.155,0.140,0.223,0.210,0.217,0.128,0.087,north,2.6,Yes
2023/09/27,11:40,0.156,0.140,0.221,0.212,0.215,0.130,0.087,north-northwest,5.0,Yes
2023/09/27,11:50,0.156,0.140,0.223,0.212,0.218,0.131,0.088,north-northwest,1.7,Yes
2023/09/27,12:00,0.157,0.141,0.224,0.210,0.218,0.130,0.090,north-northwest,3.5,Yes
2023/09/27,12:10,0.156,0.142,0.221,0.213,0.217,0.132,0.090,north-northwest,3.6,Yes
2023/09/27,12:20,0.156,0.141,0.224,0.212,0.219,0.131,0.089,north-northwest,3.2,Yes
2023/09/27,12:30,0.156,0.140,0.223,0.210,0.216,0.130,0.088,north-northwest,3.6,Yes
2023/09/27,12:40,0.153,0.141,0.222,0.212,0.216,0.128,0.087,north-northwest,3.6,Yes
2023/09/27,12:50,0.153,0.138,0.222,0.208,0.217,0.128,0.086,northwest,3.2,Yes
2023/09/27,13:00,0.153,0.138,0.218,0.209,0.213,0.126,0.085,north-northwest,3.2,Yes
2023/09/27,13:10,0.150,0.138,0.219,0.207,0.214,0.125,0.083,northwest,3.0,Yes
2023/09/27,13:20,0.153,0.136,0.217,0.205,0.213,0.124,0.083,northwest,2.2,Yes
2023/09/27,13:30,0.151,0.136,0.217,0.206,0.211,0.124,0.082,northwest,1.8,Yes
2023/09/27,13:40,0.150,0.136,0.217,0.206,0.214,0.123,0.082,north-northwest,2.3,Yes
2023/09/27,13:50,0.150,0.136,0.216,0.204,0.211,0.123,0.083,north-northwest,1.7,Yes
2023/09/27,14:00,0.149,0.135,0.215,0.205,0.211,0.123,0.082,north-northwest,0.9,Yes
2023/09/27,14:10,0.148,0.133,0.217,0.204,0.213,0.122,0.080,north,0.8,Yes
2023/09/27,14:20,0.149,0.134,0.212,0.203,0.209,0.121,0.080,east-northeast,1.6,Yes
2023/09/27,14:30,0.147,0.134,0.214,0.203,0.208,0.119,0.078,east-southeast,1.2,No
2023/09/27,14:40,0.147,0.131,0.213,0.200,0.208,0.119,0.077,east-southeast,0.8,No
2023/09/27,14:50,0.146,0.132,0.209,0.201,0.206,0.118,0.076,northeast,1.2,No
2023/09/27,15:00,0.145,0.130,0.212,0.202,0.205,0.118,0.077,-,CALM,No
2023/09/27,15:10,0.145,0.130,0.211,0.198,0.208,0.117,0.076,north-northwest,1.1,No
2023/09/27,15:20,0.146,0.131,0.208,0.198,0.206,0.117,0.076,northwest,1.2,No
2023/09/27,15:30,0.144,0.130,0.210,0.200,0.205,0.116,0.075,north-northwest,1.4,No
2023/09/27,15:40,0.143,0.129,0.210,0.198,0.206,0.117,0.075,northwest,1.5,No
2023/09/27,15:50,0.145,0.131,0.208,0.199,0.207,0.117,0.075,northwest,1.8,No
2023/09/27,16:00,0.144,0.129,0.211,0.199,0.204,0.115,0.075,northwest,2.4,No
2023/09/27,16:10,0.144,0.130,0.210,0.198,0.206,0.116,0.075,northwest,2.1,No
2023/09/27,16:20,0.145,0.129,0.208,0.199,0.207,0.116,0.074,northwest,2.2,No
2023/09/27,16:30,0.144,0.129,0.211,0.198,0.204,0.115,0.075,northwest,2.6,No
2023/09/27,16:40,0.143,0.129,0.210,0.197,0.205,0.116,0.074,northwest,2.5,No
2023/09/27,16:50,0.145,0.131,0.209,0.199,0.206,0.116,0.074,northwest,2.6,No
2023/09/27,17:00,0.145,0.129,0.211,0.199,0.205,0.115,0.074,north-northwest,2.9,No
2023/09/27,17:10,0.144,0.129,0.210,0.197,0.206,0.116,0.074,northwest,3.7,No
2023/09/27,17:20,0.145,0.130,0.209,0.199,0.206,0.115,0.074,north-northwest,4.8,No
2023/09/27,17:30,0.144,0.129,0.212,0.199,0.205,0.116,0.075,north-northwest,4.9,No
2023/09/27,17:40,0.144,0.130,0.209,0.197,0.206,0.117,0.074,north-northwest,5.0,No
2023/09/27,17:50,0.145,0.130,0.210,0.198,0.206,0.116,0.075,north-northwest,5.2,No
2023/09/27,18:00,0.144,0.129,0.211,0.198,0.204,0.116,0.074,northwest,5.1,No
2023/09/27,18:10,0.145,0.130,0.209,0.199,0.210,0.117,0.074,north-northwest,5.4,Yes
2023/09/27,18:20,0.145,0.129,0.211,0.200,0.205,0.116,0.075,north-northwest,5.4,Yes
2023/09/27,18:30,0.144,0.130,0.210,0.198,0.205,0.115,0.075,north-northwest,5.4,Yes
2023/09/27,18:40,0.145,0.129,0.210,0.201,0.208,0.117,0.075,north-northwest,5.4,Yes
2023/09/27,18:50,0.144,0.128,0.210,0.199,0.206,0.116,0.076,north-northwest,5.9,Yes
2023/09/27,19:00,0.144,0.130,0.209,0.198,0.206,0.116,0.074,north-northwest,5.7,No
2023/09/27,19:10,0.145,0.130,0.210,0.200,0.206,0.116,0.075,north-northwest,6.0,No
2023/09/27,19:20,0.144,0.129,0.209,0.199,0.205,0.116,0.075,northwest,5.9,No
2023/09/27,19:30,0.145,0.130,0.210,0.199,0.207,0.116,0.075,north-northwest,5.8,No
2023/09/27,19:40,0.145,0.128,0.211,0.198,0.204,0.116,0.075,north-northwest,6.4,No
2023/09/27,19:50,0.144,0.131,0.209,0.198,0.207,0.116,0.075,north-northwest,6.0,No
2023/09/27,20:00,0.145,0.129,0.211,0.199,0.206,0.116,0.074,north-northwest,5.8,No
2023/09/27,20:10,0.144,0.129,0.210,0.198,0.204,0.116,0.075,northwest,5.8,Yes
2023/09/27,20:20,0.145,0.130,0.210,0.199,0.208,0.115,0.075,north-northwest,5.3,Yes
2023/09/27,20:30,0.145,0.129,0.211,0.200,0.206,0.117,0.075,northwest,5.5,Yes
2023/09/27,20:40,0.143,0.130,0.209,0.197,0.206,0.116,0.074,northwest,5.5,Yes
2023/09/27,20:50,0.146,0.129,0.211,0.200,0.207,0.117,0.075,northwest,4.7,Yes
2023/09/27,21:00,0.144,0.129,0.211,0.199,0.205,0.118,0.076,northwest,4.5,Yes
2023/09/27,21:10,0.145,0.130,0.211,0.200,0.209,0.118,0.076,northwest,4.4,Yes
2023/09/27,21:20,0.146,0.130,0.212,0.200,0.206,0.117,0.076,northwest,4.5,Yes
2023/09/27,21:30,0.144,0.132,0.210,0.199,0.206,0.118,0.075,north-northwest,4.1,Yes
2023/09/27,21:40,0.146,0.129,0.211,0.201,0.206,0.117,0.076,northwest,3.7,Yes
2023/09/27,21:50,0.145,0.131,0.210,0.198,0.205,0.118,0.076,north-northwest,5.0,Yes
2023/09/27,22:00,0.145,0.130,0.212,0.200,0.207,0.118,0.075,north-northwest,4.2,Yes
2023/09/27,22:10,0.145,0.130,0.211,0.201,0.207,0.116,0.076,north-northwest,4.3,Yes
2023/09/27,22:20,0.145,0.132,0.210,0.199,0.205,0.118,0.076,north-northwest,4.5,Yes
2023/09/27,22:30,0.146,0.130,0.211,0.200,0.207,0.117,0.075,north-northwest,4.5,No
2023/09/27,22:40,0.145,0.130,0.211,0.199,0.205,0.117,0.075,northwest,4.1,Yes
2023/09/27,22:50,0.144,0.130,0.212,0.200,0.207,0.118,0.074,northwest,4.4,Yes
2023/09/27,23:00,0.146,0.130,0.211,0.200,0.206,0.117,0.076,northwest,4.5,No
2023/09/27,23:10,0.143,0.130,0.210,0.197,0.205,0.116,0.076,northwest,4.4,No
2023/09/27,23:20,0.146,0.130,0.211,0.199,0.207,0.117,0.074,northwest,4.1,No
2023/09/27,23:30,0.144,0.131,0.209,0.199,0.204,0.116,0.075,northwest,4.4,No
2023/09/27,23:40,0.145,0.130,0.211,0.198,0.206,0.116,0.074,northwest,4.3,Yes
2023/09/27,23:50,0.145,0.130,0.209,0.199,0.207,0.117,0.075,north-northwest,4.1,Yes
